Find WHDW 03-04

NORAD ID: 63690 Int'l Des: 2025-086 Owner: ZXW Country: CN Constellation: xingwang operational
LEOCIRCULARPOLARONEWEB_TYPE

当前视图

正在加载3D地球...

关于 WHDW 03-04

正在加载描述...

即将过境

Passes for default location (London). Set your location on the main map for personalized predictions.

高度历史

Loading altitude history...

两行轨道根数

1 63690U 25086D 26159.51796481 .00000063 00000-0 11313-3 0 9990
2 63690 86.5077 316.1548 0001338 97.5616 262.5670 13.24408722 53713
Epoch: Jun 8, 2026 • Age: 12 hours

当前状态

高度 1169.8 km
速度 7.27 km/s
星下点 16.38°N, 124.41°W
发射日期 Apr 28, 2025
运行时间 1.1 years
类型 other

技术详情

分类 Payload
质量 800.00 kg
干质量 800.00 kg
总质量 800.00 kg
长度 3.00 m
直径 1.00 m
跨度 10.00 m
形状 Box + 2 Pan
制造商 CAST
平台类型 Xingwang CL
阶段状态 In Orbit
所有者/国家 ZXW/CN

Most Searched